DW4993 Weather Reports


time (UTC)temp
F
wind
direction
speed
knots
gust
knots
rain 1hr
in
rain 24hr
in
rain mn
in
humidity
%
barometer
mb
20191021121804 30 258 0.0 0.0 0.00 0.00 0.00 70 1012.7
20191021121305 30 258 0.0 0.0 0.00 0.00 0.00 71 1012.7
20191021120804 30 258 0.0 0.0 0.00 0.00 0.00 72 1012.6
20191021120305 30 258 0.0 0.9 0.00 0.00 0.00 74 1012.6
20191021115805 29 258 0.0 0.9 0.00 0.00 0.00 76 1012.6
20191021115304 28 258 0.0 0.9 0.00 0.00 0.00 78 1012.5
20191021114805 28 258 0.0 0.9 0.00 0.00 0.00 78 1012.4
20191021114304 27 258 0.0 0.9 0.00 0.00 0.00 78 1012.3
20191021113804 27 258 0.0 0.9 0.00 0.00 0.00 79 1012.3
20191021113305 27 258 0.0 0.0 0.00 0.00 0.00 77 1012.2
20191021112804 27 258 0.0 0.0 0.00 0.00 0.00 77 1012.1
20191021112306 27 258 0.0 0.0 0.00 0.00 0.00 77 1012.0
20191021111805 27 258 0.0 0.0 0.00 0.00 0.00 76 1011.9
20191021111304 28 258 0.0 0.0 0.00 0.00 0.00 77 1012.0
20191021110804 28 258 0.0 0.0 0.00 0.00 0.00 76 1011.9
20191021110304 28 258 0.0 0.0 0.00 0.00 0.00 76 1011.8
20191021105805 28 258 0.0 0.0 0.00 0.00 0.00 76 1011.7
20191021105306 28 258 0.0 0.0 0.00 0.00 0.00 76 1011.7
20191021104806 28 258 0.0 0.0 0.00 0.00 0.00 75 1011.7
20191021104304 28 258 0.0 0.0 0.00 0.00 0.00 75 1011.7
20191021103804 28 258 0.0 0.0 0.00 0.00 0.00 74 1011.7
20191021103305 28 258 0.0 0.0 0.00 0.00 0.00 73 1011.7
20191021102805 28 258 0.0 0.0 0.00 0.00 0.00 73 1011.6
20191021102305 28 258 0.0 0.0 0.00 0.00 0.00 73 1011.6
20191021101804 29 258 0.0 0.0 0.00 0.00 0.00 71 1011.6
20191021101304 29 258 0.0 0.0 0.00 0.00 0.00 71 1011.5
20191021100804 29 258 0.0 0.0 0.00 0.00 0.00 70 1011.5
20191021100305 29 258 0.0 0.0 0.00 0.00 0.00 70 1011.5
20191021095804 30 258 0.0 0.0 0.00 0.00 0.00 70 1011.5
20191021095305 30 258 0.0 0.0 0.00 0.00 0.00 69 1011.4
20191021094804 31 258 0.0 0.0 0.00 0.00 0.00 68 1011.4
20191021094304 31 258 0.0 0.0 0.00 0.00 0.00 67 1011.4
20191021093804 31 258 0.0 0.0 0.00 0.00 0.00 65 1011.4
20191021093304 32 258 0.0 0.0 0.00 0.00 0.00 65 1011.3
20191021092804 32 258 0.0 0.0 0.00 0.00 0.00 63 1011.3
20191021092305 33 258 0.0 0.0 0.00 0.00 0.00 62 1011.3
20191021091804 34 258 0.0 0.0 0.00 0.00 0.00 62 1011.3
20191021091304 34 258 0.9 1.7 0.00 0.00 0.00 61 1011.2
20191021090804 35 258 0.0 0.9 0.00 0.00 0.00 60 1011.2
20191021090305 35 258 0.0 0.9 0.00 0.00 0.00 59 1011.1
20191021085804 35 258 0.9 2.6 0.00 0.00 0.00 60 1011.1
20191021085305 35 258 0.9 2.6 0.00 0.00 0.00 59 1011.0
20191021084805 35 258 0.9 1.7 0.00 0.00 0.00 59 1010.9
20191021084305 35 258 0.0 0.9 0.00 0.00 0.00 59 1010.9
20191021083805 35 258 0.9 1.7 0.00 0.00 0.00 59 1010.9
20191021083305 35 258 0.9 1.7 0.00 0.00 0.00 59 1010.9
20191021082804 35 258 0.9 1.7 0.00 0.00 0.00 59 1010.9
20191021082305 35 258 0.9 1.7 0.00 0.00 0.00 59 1010.9
20191021081804 35 258 1.7 2.6 0.00 0.00 0.00 59 1010.9
20191021081306 35 258 1.7 1.7 0.00 0.00 0.00 59 1011.0
20191021080804 35 258 1.7 2.6 0.00 0.00 0.00 60 1011.0
20191021080304 35 248 1.7 2.6 0.00 0.00 0.00 60 1011.1
20191021075804 35 248 0.9 2.6 0.00 0.00 0.00 61 1011.0
20191021075306 35 248 0.9 1.7 0.00 0.00 0.00 62 1011.0
20191021074804 35 152 0.0 1.7 0.00 0.00 0.00 62 1011.0
20191021074304 34 152 0.9 1.7 0.00 0.00 0.00 63 1011.0
20191021073805 34 152 0.9 2.6 0.00 0.00 0.00 63 1011.0
20191021073304 34 152 1.7 2.6 0.00 0.00 0.00 64 1011.0
20191021072805 34 151 0.9 2.6 0.00 0.00 0.00 64 1010.9
20191021072306 34 151 0.9 1.7 0.00 0.00 0.00 65 1010.9
20191021071804 33 151 0.9 1.7 0.00 0.00 0.00 65 1010.9
20191021071304 33 147 1.7 2.6 0.00 0.00 0.00 66 1010.8
20191021070804 33 143 0.0 0.9 0.00 0.00 0.00 67 1010.8
20191021070304 33 143 0.0 0.9 0.00 0.00 0.00 67 1010.8
20191021065805 33 143 0.0 0.9 0.00 0.00 0.00 67 1010.8
20191021065304 33 143 0.0 0.0 0.00 0.00 0.00 67 1010.9
20191021064804 33 143 0.0 0.9 0.00 0.00 0.00 67 1010.8
20191021064304 33 143 0.0 0.0 0.00 0.00 0.00 66 1010.7
20191021063804 33 143 0.0 0.0 0.00 0.00 0.00 66 1010.7
20191021063304 33 143 0.0 0.0 0.00 0.00 0.00 66 1010.6
20191021062804 33 143 0.0 0.9 0.00 0.00 0.00 66 1010.6
20191021062304 33 143 0.0 0.9 0.00 0.00 0.00 67 1010.6
20191021061805 33 143 0.0 0.0 0.00 0.00 0.00 68 1010.6
20191021061304 33 143 0.0 0.0 0.00 0.00 0.00 68 1010.6
20191021060818 33 143 0.0 0.0 0.00 0.00 0.00 68 1010.5
20191021060304 33 143 0.0 0.0 0.00 0.00 0.00 67 1010.5
20191021055804 33 143 0.0 0.0 0.00 0.00 0.00 68 1010.5
20191021055305 33 143 0.9 1.7 0.00 0.00 0.00 69 1010.5
20191021054804 32 143 0.9 1.7 0.00 0.00 0.00 71 1010.5
20191021054304 32 143 0.0 0.9 0.00 0.00 0.00 72 1010.5
20191021053804 31 143 0.0 0.0 0.00 0.00 0.00 73 1010.5
20191021053305 31 143 0.0 0.9 0.00 0.00 0.00 74 1010.5
20191021052804 30 143 0.9 0.9 0.00 0.00 0.00 74 1010.6
20191021052304 30 143 0.0 0.0 0.00 0.00 0.00 73 1010.6
20191021051804 30 143 0.0 0.0 0.00 0.00 0.00 73 1010.5
20191021051304 30 143 0.0 0.0 0.00 0.00 0.00 72 1010.5
20191021050805 30 143 0.0 0.0 0.00 0.00 0.00 72 1010.5
20191021050304 30 143 0.0 0.0 0.00 0.00 0.00 71 1010.5
20191021045804 30 143 0.0 0.0 0.00 0.00 0.00 70 1010.5
20191021045304 30 143 0.0 0.0 0.00 0.00 0.00 70 1010.5
20191021044805 31 143 0.0 0.0 0.00 0.00 0.00 70 1010.5
20191021044305 31 143 0.0 0.0 0.00 0.00 0.00 70 1010.5
20191021043805 31 143 0.0 0.0 0.00 0.00 0.00 71 1010.5
20191021043304 31 143 0.0 0.0 0.00 0.00 0.00 71 1010.5
20191021042804 31 143 0.0 0.0 0.00 0.00 0.00 71 1010.5
20191021042304 31 143 0.0 0.0 0.00 0.00 0.00 71 1010.5
20191021041804 30 143 0.0 0.0 0.00 0.00 0.00 70 1010.4
20191021041305 30 143 0.0 0.0 0.00 0.00 0.00 70 1010.4
20191021040804 31 143 0.0 0.0 0.00 0.00 0.00 69 1010.3
20191021040305 31 143 0.0 0.0 0.00 0.00 0.00 68 1010.2
20191021035804 31 143 0.0 0.0 0.00 0.00 0.00 68 1010.2
20191021035304 31 143 0.0 0.0 0.00 0.00 0.00 68 1010.1
20191021034805 31 143 0.0 0.0 0.00 0.00 0.00 68 1010.1
20191021034304 31 143 0.0 0.0 0.00 0.00 0.00 67 1010.2
20191021033804 31 143 0.0 0.0 0.00 0.00 0.00 66 1010.2
20191021033304 31 143 0.0 0.0 0.00 0.00 0.00 65 1010.1
20191021032804 32 143 0.0 0.0 0.00 0.00 0.00 65 1010.1
20191021032304 32 143 0.0 0.9 0.00 0.00 0.00 64 1010.1
20191021031804 32 143 0.0 0.0 0.00 0.00 0.00 63 1010.2
20191021031304 33 143 0.0 0.0 0.00 0.00 0.00 62 1010.1
20191021030804 33 143 0.0 0.0 0.00 0.00 0.00 62 1010.1
20191021030305 33 143 0.0 0.0 0.00 0.00 0.00 61 1010.1
20191021025804 34 143 0.0 0.0 0.00 0.00 0.00 60 1010.0
20191021025304 34 143 0.0 0.0 0.00 0.00 0.00 59 1010.0
20191021024804 34 143 0.0 0.0 0.00 0.00 0.00 58 1010.0
20191021024305 35 143 0.0 0.0 0.00 0.00 0.00 58 1010.0
20191021023804 35 143 0.0 0.0 0.00 0.00 0.00 57 1010.0
20191021023304 35 143 0.0 0.0 0.00 0.00 0.00 56 1010.0
20191021022805 36 143 0.0 0.9 0.00 0.00 0.00 55 1009.9
20191021022305 36 143 0.0 0.9 0.00 0.00 0.00 54 1009.9
20191021021804 37 143 0.0 0.0 0.00 0.00 0.00 53 1009.9
20191021021304 37 143 0.0 0.0 0.00 0.00 0.00 52 1009.9
20191021020805 37 143 0.0 0.0 0.00 0.00 0.00 51 1009.8
20191021020304 38 143 0.9 2.6 0.00 0.00 0.00 51 1009.8
20191021015804 38 148 0.9 2.6 0.00 0.00 0.00 51 1009.8
20191021015304 38 222 0.0 0.9 0.00 0.00 0.00 51 1009.8
20191021014804 38 222 0.0 0.9 0.00 0.00 0.00 51 1009.9
20191021014305 38 222 0.0 1.7 0.00 0.00 0.00 51 1010.0
20191021013804 38 222 0.0 1.7 0.00 0.00 0.00 51 1009.9
20191021013305 39 223 0.0 0.0 0.00 0.00 0.00 50 1009.9
20191021012805 39 223 0.0 0.0 0.00 0.00 0.00 49 1009.9
20191021012305 39 223 0.9 2.6 0.00 0.00 0.00 49 1009.9
20191021011804 39 223 0.9 2.6 0.00 0.00 0.00 49 1009.9
20191021011304 39 208 0.0 0.9 0.00 0.00 0.00 48 1010.0
20191021010805 40 208 0.0 0.9 0.00 0.00 0.00 48 1010.0
20191021010305 40 208 0.0 0.0 0.00 0.00 0.00 47 1010.0
20191021005805 40 208 0.0 0.9 0.00 0.00 0.00 46 1010.0
20191021005304 41 208 0.0 0.9 0.00 0.00 0.00 46 1010.1
20191021004804 41 201 0.0 0.9 0.00 0.00 0.00 45 1010.0
20191021004305 42 198 0.0 0.9 0.00 0.00 0.00 44 1009.9
20191021003804 42 198 0.0 0.9 0.00 0.00 0.00 43 1010.0
20191021003304 42 198 0.9 1.7 0.00 0.00 0.00 42 1010.0
20191021002804 43 235 0.0 1.7 0.00 0.00 0.00 42 1010.0
20191021002304 43 235 0.0 1.7 0.00 0.00 0.00 41 1010.1
20191021001805 44 236 0.9 2.6 0.00 0.00 0.00 40 1010.0
20191021001304 44 204 0.9 2.6 0.00 0.00 0.00 39 1010.1
20191021000805 44 219 0.9 2.6 0.00 0.00 0.00 38 1010.1
20191021000304 45 240 0.9 2.6 0.00 0.00 0.00 37 1010.1
20191020235805 45 219 1.7 2.6 0.00 0.00 0.00 36 1010.1
20191020235305 46 201 1.7 2.6 0.00 0.00 0.00 36 1010.1
20191020234804 46 209 0.9 4.3 0.00 0.00 0.00 36 1010.1
20191020234304 46 208 1.7 4.3 0.00 0.00 0.00 34 1010.1
20191020233804 47 228 1.7 4.3 0.00 0.00 0.00 34 1010.1
20191020233304 47 192 0.9 4.3 0.00 0.00 0.00 34 1010.1
20191020232805 47 175 1.7 2.6 0.00 0.00 0.00 35 1010.1
20191020232304 47 202 1.7 4.3 0.00 0.00 0.00 35 1010.2
20191020231804 46 222 1.7 4.3 0.00 0.00 0.00 36 1010.2
20191020231304 46 247 2.6 6.1 0.00 0.00 0.00 36 1010.2
20191020230804 46 220 2.6 6.1 0.00 0.00 0.00 37 1010.2
20191020230305 46 202 0.9 2.6 0.00 0.00 0.00 38 1010.3
20191020225804 45 233 1.7 4.3 0.00 0.00 0.00 38 1010.3
20191020225304 45 212 1.7 5.2 0.00 0.00 0.00 39 1010.3
20191020224804 45 210 1.7 2.6 0.00 0.00 0.00 39 1010.4
20191020224304 46 215 1.7 6.1 0.00 0.00 0.00 39 1010.4
20191020223805 46 217 1.7 6.1 0.00 0.00 0.00 38 1010.5
20191020223304 46 226 0.9 4.3 0.00 0.00 0.00 39 1010.5
20191020222806 46 225 1.7 2.6 0.00 0.00 0.00 39 1010.5
20191020222305 46 212 2.6 4.3 0.00 0.00 0.00 39 1010.6
20191020221804 47 235 1.7 2.6 0.00 0.00 0.00 39 1010.7
20191020221304 47 173 2.6 7.0 0.00 0.00 0.00 39 1010.7
20191020220805 47 227 1.7 4.3 0.00 0.00 0.00 39 1010.7
20191020220304 47 213 1.7 4.3 0.00 0.00 0.00 39 1010.7
20191020215805 47 273 1.7 4.3 0.00 0.00 0.00 39 1010.8
20191020215304 47 244 2.6 6.1 0.00 0.00 0.00 39 1010.9
20191020214804 47 220 4.3 6.1 0.00 0.00 0.00 40 1010.9
20191020214304 47 247 3.5 7.0 0.00 0.00 0.00 40 1010.9
20191020213804 47 239 2.6 4.3 0.00 0.00 0.00 39 1011.0
20191020213305 47 201 2.6 7.0 0.00 0.00 0.00 40 1011.0
20191020212804 47 79 0.9 2.6 0.00 0.00 0.00 39 1011.0
20191020212304 47 255 1.7 5.2 0.00 0.00 0.00 39 1011.1
20191020211804 46 215 2.6 7.0 0.00 0.00 0.00 39 1011.1
20191020211305 46 253 3.5 7.0 0.00 0.00 0.00 40 1011.1
20191020210804 47 261 2.6 6.1 0.00 0.00 0.00 41 1011.1
20191020210305 46 224 0.9 5.2 0.00 0.00 0.00 43 1011.1
20191020205805 46 238 1.7 5.2 0.00 0.00 0.00 42 1011.1
20191020205304 46 237 2.6 4.3 0.00 0.00 0.00 41 1011.3
20191020204804 47 235 2.6 5.2 0.00 0.00 0.00 42 1011.3
20191020204305 47 216 0.9 5.2 0.00 0.00 0.00 44 1011.4
20191020203804 47 217 1.7 5.2 0.00 0.00 0.00 44 1011.4
20191020203304 47 207 1.7 5.2 0.00 0.00 0.00 44 1011.5
20191020202804 47 154 2.6 7.0 0.00 0.00 0.00 45 1011.6
20191020202304 47 217 0.9 2.6 0.00 0.00 0.00 46 1011.7
20191020201804 46 206 0.9 4.3 0.00 0.00 0.00 47 1011.7
20191020201304 46 205 1.7 4.3 0.00 0.00 0.00 48 1011.7
20191020200805 45 217 1.7 4.3 0.00 0.00 0.00 48 1011.8
20191020200305 45 213 3.5 7.0 0.00 0.00 0.00 49 1011.9
20191020195804 45 222 2.6 6.1 0.00 0.00 0.00 50 1011.9
20191020195304 44 219 2.6 5.2 0.00 0.00 0.00 51 1012.0
20191020194804 44 216 2.6 7.0 0.00 0.00 0.00 51 1012.1
20191020194304 44 211 1.7 7.0 0.00 0.00 0.00 50 1012.2
20191020193805 43 214 4.3 7.0 0.00 0.00 0.00 51 1012.3
20191020193304 43 256 5.2 10.4 0.00 0.00 0.00 50 1012.3
20191020192804 44 237 4.3 7.0 0.00 0.00 0.00 51 1012.3
20191020192304 44 207 4.3 7.8 0.00 0.00 0.00 51 1012.3
20191020191805 44 218 4.3 7.8 0.00 0.00 0.00 52 1012.4
20191020191304 44 251 1.7 5.2 0.00 0.00 0.00 54 1012.5
20191020190804 43 209 4.3 7.8 0.00 0.00 0.00 55 1012.5
20191020190305 43 238 4.3 7.8 0.00 0.00 0.00 55 1012.5
20191020185804 43 233 4.3 7.8 0.00 0.00 0.00 56 1012.7
20191020185304 43 221 3.5 7.0 0.00 0.00 0.00 56 1012.6
20191020184804 43 226 2.6 7.0 0.00 0.00 0.00 57 1012.6
20191020184305 42 220 4.3 7.0 0.00 0.00 0.00 57 1012.6
20191020183805 42 219 4.3 8.7 0.00 0.00 0.00 57 1012.7
20191020183304 42 227 3.5 6.1 0.00 0.00 0.00 58 1012.8
20191020182808 41 229 4.3 6.1 0.00 0.00 0.00 58 1012.8
20191020180804 40 237 4.3 8.7 0.00 0.00 0.00 60 1012.9
20191020180304 40 213 3.5 7.0 0.00 0.00 0.00 61 1013.0
20191020175804 40 219 1.7 5.2 0.00 0.00 0.00 62 1013.0
20191020175304 39 219 3.5 5.2 0.00 0.00 0.00 62 1013.0
20191020174804 39 215 2.6 6.1 0.00 0.00 0.00 64 1013.0
20191020174304 39 211 4.3 6.1 0.00 0.00 0.00 64 1013.0
20191020173803 39 229 3.5 7.0 0.00 0.00 0.00 66 1013.0
20191020173304 38 236 2.6 7.0 0.00 0.00 0.00 67 1013.0
20191020172804 38 228 2.6 5.2 0.00 0.00 0.00 68 1013.0
20191020172304 38 230 2.6 5.2 0.00 0.00 0.00 68 1013.0
20191020171804 37 246 2.6 7.0 0.00 0.00 0.00 69 1013.1
20191020171303 37 253 4.3 7.0 0.00 0.00 0.00 69 1013.1
20191020170803 37 227 4.3 7.8 0.00 0.00 0.00 69 1013.1
20191020170303 37 236 4.3 7.0 0.00 0.00 0.00 69 1013.1
20191020165804 37 235 2.6 7.0 0.00 0.00 0.00 70 1013.1
20191020165304 37 233 2.6 6.1 0.00 0.00 0.00 72 1013.2
20191020164803 36 224 2.6 6.1 0.00 0.00 0.00 72 1013.2
20191020164304 36 248 2.6 5.2 0.00 0.00 0.00 74 1013.2
20191020163804 35 247 2.6 4.3 0.00 0.00 0.00 74 1013.3
20191020163304 35 240 2.6 7.0 0.00 0.00 0.00 75 1013.4
20191020162804 35 236 2.6 6.1 0.00 0.00 0.00 77 1013.4
20191020162304 34 226 2.6 2.6 0.00 0.00 0.00 78 1013.4
20191020161804 33 252 1.7 2.6 0.00 0.00 0.00 79 1013.4
20191020161304 33 295 1.7 2.6 0.00 0.00 0.00 79 1013.4
20191020160804 32 295 1.7 2.6 0.00 0.00 0.00 79 1013.4
20191020160304 32 295 1.7 2.6 0.00 0.00 0.00 80 1013.4
20191020155804 32 295 1.7 2.6 0.00 0.00 0.00 80 1013.5
20191020155304 31 295 2.6 5.2 0.00 0.00 0.00 81 1013.5
20191020154804 31 296 2.6 2.6 0.00 0.00 0.00 82 1013.5
20191020154304 30 296 1.7 2.6 0.00 0.00 0.00 83 1013.6
20191020153804 30 296 1.7 2.6 0.00 0.00 0.00 84 1013.5
20191020153304 29 296 1.7 2.6 0.00 0.00 0.00 85 1013.5
20191020152804 29 296 0.9 1.7 0.00 0.00 0.00 86 1013.5
20191020152303 28 296 0.9 2.6 0.00 0.00 0.00 87 1013.4
20191020151803 28 296 0.9 1.7 0.00 0.00 0.00 88 1013.4
20191020151304 27 302 0.9 2.6 0.00 0.00 0.00 89 1013.4
20191020150804 26 358 0.0 1.7 0.00 0.00 0.00 90 1013.3
20191020150304 26 358 0.0 1.7 0.00 0.00 0.00 90 1013.2
20191020145804 25 358 0.0 1.7 0.00 0.00 0.00 90 1013.2
20191020145303 25 358 0.0 0.0 0.00 0.00 0.00 90 1013.1
20191020144804 24 358 0.0 1.7 0.00 0.00 0.00 91 1013.0
20191020144304 24 358 0.9 1.7 0.00 0.00 0.00 91 1013.0
20191020143804 23 358 0.0 0.9 0.00 0.00 0.00 91 1013.0
20191020143304 23 358 0.0 0.9 0.00 0.00 0.00 91 1013.0
20191020142804 22 358 0.0 0.9 0.00 0.00 0.00 91 1012.9
20191020142303 22 358 0.0 0.0 0.00 0.00 0.00 90 1012.9
20191020141805 22 358 0.0 0.0 0.00 0.00 0.00 89 1012.8
20191020141304 22 358 0.0 0.0 0.00 0.00 0.00 89 1012.8
20191020140804 22 358 0.0 0.0 0.00 0.00 0.00 89 1012.7
20191020140304 22 358 0.0 0.0 0.00 0.00 0.00 89 1012.7
20191020135804 22 358 0.0 0.0 0.00 0.00 0.00 89 1012.6
20191020135304 22 358 0.0 0.0 0.00 0.00 0.00 88 1012.6
20191020134803 22 358 0.0 0.0 0.00 0.00 0.00 88 1012.5
20191020134303 22 358 0.0 0.0 0.00 0.00 0.00 88 1012.4
20191020133804 22 358 0.0 0.0 0.00 0.00 0.00 88 1012.4
20191020133304 22 358 0.0 0.0 0.00 0.00 0.00 88 1012.3
20191020132804 22 358 0.0 0.0 0.00 0.00 0.00 88 1012.3
20191020132304 23 358 0.0 0.0 0.00 0.00 0.00 88 1012.2
20191020131804 23 358 0.0 0.0 0.00 0.00 0.00 88 1012.1
20191020131304 23 358 0.0 0.0 0.00 0.00 0.00 89 1012.1
20191020130804 23 358 0.0 0.0 0.00 0.00 0.00 89 1012.1
20191020130304 23 358 0.0 0.0 0.00 0.00 0.00 88 1012.0
20191020125804 23 358 0.0 0.0 0.00 0.00 0.00 88 1011.9
20191020125304 23 358 0.0 0.0 0.00 0.00 0.00 88 1011.8
20191020124805 23 358 0.0 0.0 0.00 0.00 0.00 88 1011.8
20191020124304 23 358 0.0 0.0 0.00 0.00 0.00 88 1011.8
20191020123804 23 358 0.0 0.0 0.00 0.00 0.00 88 1011.7
20191020123303 24 358 0.0 0.0 0.00 0.00 0.00 88 1011.6
20191020122804 24 358 0.0 0.0 0.00 0.00 0.00 88 1011.6
20191020122303 24 358 0.0 0.0 0.00 0.00 0.00 88 1011.5